ATLAS 5 CENTAUR DEB, 43956

Orbit data source: Space-Track

ATLAS 5 CENTAUR DEB, 43956 is space debris in HEO originally from a launch on Wed, 17 Sep 2014 UTC launched from the Air Force Eastern Test Range (AFETR). Debris objects in space refer to the collection of defunct objects orbiting the Earth. Examples of debris include non-operational satellites, rocket bodies, and fragments generated from explosions, collisions, or faulty payload assembly.

Loading next visibility...
Identifier
43956, 2014-055K
Orbit
HEO
Country
Flag of USUS
Related business
Flag of USUnited Launch Alliance/Lockheed Martin (US)
Manufacturer
Unknown
Mission
Spacecraft
Bus & Motor
Unknown
Mass
Unknown
Launch date (UTC)
2014-09-17 (12 years ago)
Launch vehicle
Unknown
Launch site
Air Force Eastern Test Range (AFETR)
Object type
Payload
Rocket body
Debris
Shape & HBR
Unknown shape, 1.1 m
Radar Cross Section
Small (<0.1 m²)

Expand to show TLE details & history
Last TLE update: 1 week ago

TLE from 1 week ago
0 ATLAS 5 CENTAUR DEB
1 43956U 14055K   26126.01347085  .00000039  00000-0  00000-0 0  9999
2 43956  20.9657 103.8956 5075741 239.5168  60.9390  1.92105698 53324
Epoch: 2026-05-06T00:19Z
TLE epoch observation values (Epoch: 2026-05-06T00:19:23.881Z)
Latitude
-0.00001°
Longitude
-124.91544°
Altitude
20,925.958 km
Speed
3.823 km/s
True Right ascension
06h 55m 15s
True Declination
0° 00' 00"
Sunlit
Object was in daylight at epoch
Visualization orbit readout
Latitude
Unknown
Longitude
Unknown
Altitude
Unknown
Speed
Unknown
Apparent Right ascension
Unknown
Apparent Declination
Unknown
Sunlit
N/A
Visualization observer readout
Local Sidereal Time
07:42:45
Azimuth
Unknown
Elevation
Unknown
Doppler factor
Unknown
Orbital elements
Apogee altitude
34,833.476 km
Perigee altitude
7,083.003 km
Semi-major axis
27,336.376 km
Eccentricity
0.50757
Inclination
20.9657°
RAAN
103.8956°
Arg. of periapsis
239.5168°
True anomaly
120.52034°
Mean anomaly
60.939°
Eccentric anomaly
90.02085°
Mean motion
0.48021 °/min
Orbital period
749.67 mins
BSTAR
0
Loading maneuver chart data...
Computing Atmospheric mass density...

Documentation

Showing up to 5 results
|